Flag for Myanmar Weather past 2 weeks in Yangon, Myanmar

Now
86 °F

Passing clouds.


Feels Like: 97 °F
Forecast: 82 / 101 °F
Wind: 9 mph from South

Location: Rangoon Airport


UV Index: 10 (Very high)

Visibility: 4 mi


Pressure: 29.83 "Hg

Humidity: 75%

Dew point: 77 °F

Location of YangonLocation

Historic Weather in Yangon

°F

Yangon temperature yesterday

Maximum temperature yesterday: 100 °F (at 3:30 PM)
Minimum temperature yesterday: 81 °F (at 5:00 AM)
Average temperature yesterday: 89 °F

Past Weeks' High & Low Weather Summary

 TemperatureHumidityPressure
High100 °F (Apr 18, 2:30 PM)94% (Apr 11, 5:30 AM)29.92 "Hg (Apr 11, 5:30 AM)
Low75 °F (Apr 17, 5:00 AM)18% (Apr 17, 5:00 PM)29.65 "Hg (Apr 20, 4:00 PM)
Average89 °F68%29.80 "Hg
* Reported Apr 9 9:30 PM — Apr 24 10:00 PM, Yangon, Weather by CustomWeather, © 2014

Note: Actual official high and low records may vary slightly from our data, if they occured in-between our weather recording intervals... More about our weather records

Advertising

Historic Weather Conditions — Data for Previous 24 hours

 ConditionsComfort  
Time TempWeatherWind HumidityBarometerVisibility
10:00 PM
Apr 24
86 °FPassing clouds.9 mph75%29.80 "Hg4 mi
9:30 PM86 °FPassing clouds.6 mph70%29.80 "Hg4 mi
8:30 PM86 °FPassing clouds.9 mph70%29.77 "Hg4 mi
8:00 PM86 °FPassing clouds.10 mph70%29.74 "Hg4 mi
7:30 PM88 °FPassing clouds.9 mph70%29.74 "Hg4 mi
7:00 PM88 °FPassing clouds.6 mph70%29.71 "Hg4 mi
6:30 PM91 °FScattered clouds.9 mph71%29.71 "Hg4 mi
6:00 PM91 °FScattered clouds.12 mph71%29.68 "Hg4 mi
5:30 PM93 °FScattered clouds.9 mph63%29.68 "Hg5 mi
5:00 PM93 °FScattered clouds.9 mph63%29.68 "Hg5 mi
4:00 PM99 °FPassing clouds.9 mph50%29.65 "Hg6 mi
3:30 PM99 °FPassing clouds.9 mph50%29.68 "Hg6 mi
3:00 PM99 °FPassing clouds.9 mph50%29.68 "Hg6 mi
2:30 PM99 °FScattered clouds.9 mph50%29.71 "Hg6 mi
2:00 PM99 °FScattered clouds.8 mph50%29.71 "Hg6 mi
1:30 PM99 °FScattered clouds.10 mph50%29.74 "Hg6 mi
12:30 PM97 °FScattered clouds.9 mph50%29.77 "Hg6 mi
12:00 PM95 °FScattered clouds.12 mph53%29.80 "Hg6 mi
11:30 AM91 °FScattered clouds.6 mph59%29.80 "Hg6 mi
11:00 AM91 °FScattered clouds.5 mph59%29.80 "Hg6 mi
10:30 AM90 °FPartly sunny.3 mph71%29.80 "Hg5 mi
9:30 AM86 °FPartly sunny.6 mph75%29.83 "Hg4 mi
9:00 AM84 °FScattered clouds.3 mph74%29.80 "Hg4 mi
8:30 AM82 °FScattered clouds.3 mph84%29.80 "Hg4 mi
8:00 AM82 °FPassing clouds.3 mph84%29.80 "Hg4 mi
7:00 AM82 °FClear.3 mph84%29.77 "Hg4 mi
6:00 AM81 °FHaze.3 mph94%29.74 "Hg4 mi
5:30 AM81 °FHaze.3 mph94%29.71 "Hg4 mi
5:00 AM81 °FFog.3 mph94%29.71 "Hg3 mi
Weather by CustomWeather, © 2014

See weather overview